Location: Radomski Observatory
(40.2854°N, 79.5145°W)
Time: 19:32:47
(UTC-04:00)

Amateur Radio Satellites - All Passes

Search period start: 01 September 2014 19:02
Search period end: 02 September 2014 19:02
Location: Radomski Observatory, 40.2854°N, 79.5145°W

Satellite Date Start Highest point End Downlink Frequencies (MHz)
Time Altitude Azimuth
Sapphire 01 Sep 19:05:11 19:08:28 16° 318° (NW) 19:11:45 437.095 MHz 1200 baud AX-25 AFSK
RS-15 01 Sep 19:14:47 19:23:37 28° 256° (WSW) 19:32:46 29.354 - 29.394 USB, Beacon 29.352 USB
JAS-2 01 Sep 19:20:32 19:26:05 36° 262° (W) 19:31:10 435.800 - 435.900 CW/SSB, 435.910 FM
SO-67 01 Sep 19:40:52 19:44:20 88° 79° (ENE) 19:47:49 435.3500 MHz FM
STRAND 1 01 Sep 20:27:14 20:32:20 72° 286° (WNW) 20:37:24 ?
UKube-1 01 Sep 20:35:51 20:37:21 12° 62° (ENE) 20:38:50 145.840 MHz, 145.915 MHz
HO-68 01 Sep 20:47:34 20:54:19 48° 66° (ENE) 21:01:05 435.675 MHz FM
MaSat-1 01 Sep 21:33:22 21:35:35 13° 45° (NE) 21:37:41 437.345 MHz
UKube-1 01 Sep 22:08:39 22:12:58 68° 258° (WSW) 22:17:19 145.840 MHz, 145.915 MHz
Oscar 11 01 Sep 22:12:25 22:16:45 80° 76° (ENE) 22:21:08 145.825 FM, Beacon 2401.500 USB
AO-40 01 Sep 22:28:58 04:50:27 43° 174° (S) 06:47:46 Beacon 2401.320
HO-68 01 Sep 22:35:56 22:42:10 32° 264° (W) 22:48:26 435.675 MHz FM
Saudisat 1A 01 Sep 22:43:42 22:48:06 81° 121° (ESE) 22:52:32 436.775 MHz
FUNcube-1 01 Sep 22:44:18 22:48:26 67° 75° (ENE) 22:52:42 145.950 - 145.970 MHz USB
MaSat-1 01 Sep 23:08:48 23:13:18 72° 248° (WSW) 23:17:07 437.345 MHz
KITSAT 1 01 Sep 23:26:01 23:33:56 62° 114° (ESE) 23:41:52 435.175 FM
Saudisat 1A 02 Sep 00:25:49 00:28:15 14° 320° (NW) 00:30:42 436.775 MHz
Sapphire 02 Sep 00:26:16 00:28:18 12° 38° (NE) 00:30:19 437.095 MHz 1200 baud AX-25 AFSK
PCSat 02 Sep 00:54:13 00:58:09 20° 45° (NE) 01:02:03 145.825 MHz
KITSAT 1 02 Sep 01:22:35 01:29:47 34° 315° (NW) 01:37:01 435.175 FM
Oscar 16 02 Sep 01:37:14 01:39:51 14° 90° (E) 01:42:27 437.025 USB, Beacon 2401.1428
Sapphire 02 Sep 02:07:25 02:12:50 64° 59° (ENE) 02:18:12 437.095 MHz 1200 baud AX-25 AFSK
AO-27 02 Sep 02:10:04 02:11:42 11° 89° (E) 02:13:20 436.795 MHz FM
PCSat 02 Sep 02:36:41 02:42:05 69° 244° (WSW) 02:47:27 145.825 MHz
Oscar 19 02 Sep 02:39:12 02:44:18 54° 100° (E) 02:49:22 437.125 CW, 437.150 USB
AO-Echo 02 Sep 02:48:22 02:52:29 30° 96° (E) 02:56:37 ?
Gurwin Techsat 1B 02 Sep 02:50:41 02:53:08 13° 90° (E) 02:55:35 435.225 FM
Oscar 16 02 Sep 03:14:30 03:19:41 68° 286° (WNW) 03:24:49 437.025 USB, Beacon 2401.1428
ITAMSAT 1 02 Sep 03:16:57 03:22:01 53° 100° (E) 03:27:05 435.822 SSB
Oscar 10/S400 02 Sep 03:20:21 04:32:36 39° 231° (SW) 09:25:42 145.825 - 145.975 CW/USB, Beacon 145.810 USB
SO-50 02 Sep 03:22:58 03:27:14 47° 117° (ESE) 03:31:36 436.795 FM
KITSAT 1 02 Sep 03:25:24 03:28:11 12° 342° (NNW) 03:30:58 435.175 FM
Uribyol 2 02 Sep 03:26:13 03:31:25 69° 102° (ESE) 03:36:36 436.500 FM
JAS-1B 02 Sep 03:32:07 03:38:39 63° 101° (E) 03:44:23 435.800 - 435.900 CW/SSB
TMSAT-1 02 Sep 03:38:58 03:43:31 29° 95° (E) 03:48:03 436.925 FM
AO-27 02 Sep 03:46:35 03:51:47 80° 285° (WNW) 03:56:59 436.795 MHz FM
Sapphire 02 Sep 03:52:16 03:55:41 17° 256° (WSW) 03:59:05 437.095 MHz 1200 baud AX-25 AFSK
OPAL 02 Sep 04:16:14 04:20:55 39° 67° (ENE) 04:25:41 ?
Oscar 19 02 Sep 04:19:37 04:23:12 19° 297° (WNW) 04:26:47 437.125 CW, 437.150 USB
AO-Echo 02 Sep 04:27:15 04:31:10 27° 292° (WNW) 04:35:07 ?
Gurwin Techsat 1B 02 Sep 04:28:20 04:33:38 73° 286° (WNW) 04:38:55 435.225 FM
ITAMSAT 1 02 Sep 04:57:28 05:01:06 20° 297° (WNW) 05:04:44 435.822 SSB
SO-50 02 Sep 05:04:32 05:08:02 22° 315° (NW) 05:11:36 436.795 FM
Uribyol 2 02 Sep 05:07:21 05:10:18 15° 299° (WNW) 05:13:14 436.500 FM
UOSAT-12 02 Sep 05:08:51 05:13:13 44° 116° (ESE) 05:17:40 437.025 FM, 437.400 FM
TMSAT-1 02 Sep 05:18:40 05:23:26 35° 292° (WNW) 05:28:11 436.925 FM
Uosat F 02 Sep 05:19:11 05:24:00 46° 100° (E) 05:28:48 435.120 FM
JAS-1B 02 Sep 05:23:59 05:28:33 20° 303° (WNW) 05:32:44 435.800 - 435.900 CW/SSB
KITSAT 1 02 Sep 05:26:17 05:28:15 11° 14° (NNE) 05:30:12 435.175 FM
AO-27 02 Sep 05:29:38 05:30:26 10° 302° (WNW) 05:31:14 436.795 MHz FM
AO-7 02 Sep 05:32:58 05:41:11 62° 104° (ESE) 05:49:20 29.400 - 29.500 MHz
OPAL 02 Sep 05:55:48 05:59:54 25° 263° (W) 06:04:04 ?
STRAND 1 02 Sep 06:05:31 06:09:02 19° 63° (ENE) 06:12:33 ?
Hamsat 02 Sep 06:23:50 06:27:07 21° 93° (E) 06:30:22 145.90 MHz
JAS-2 02 Sep 06:29:06 06:33:33 26° 96° (E) 06:38:17 435.800 - 435.900 CW/SSB, 435.910 FM
UOSAT-12 02 Sep 06:49:47 06:53:33 24° 314° (NW) 06:57:23 437.025 FM, 437.400 FM
Uosat F 02 Sep 06:58:48 07:02:27 21° 296° (WNW) 07:06:06 435.120 FM
Saudisat 1A 02 Sep 07:10:59 07:15:20 54° 54° (NE) 07:19:38 436.775 MHz
KITSAT 1 02 Sep 07:20:01 07:26:56 30° 43° (NE) 07:33:47 435.175 FM
RS-15 02 Sep 07:23:59 07:34:32 52° 111° (ESE) 07:44:55 29.354 - 29.394 USB, Beacon 29.352 USB
AO-7 02 Sep 07:26:31 07:33:27 31° 302° (WNW) 07:40:22 29.400 - 29.500 MHz
STRAND 1 02 Sep 07:42:51 07:47:49 52° 260° (W) 07:52:48 ?
Hamsat 02 Sep 07:59:14 08:03:08 33° 289° (WNW) 08:06:58 145.90 MHz
JAS-2 02 Sep 08:13:52 08:18:44 38° 290° (WNW) 08:23:58 435.800 - 435.900 CW/SSB, 435.910 FM
SO-67 02 Sep 08:38:02 08:41:30 69° 283° (WNW) 08:44:55 435.3500 MHz FM
Saudisat 1A 02 Sep 08:51:54 08:54:27 15° 251° (WSW) 08:56:59 436.775 MHz
KITSAT 1 02 Sep 09:15:00 09:23:02 73° 244° (WSW) 09:31:02 435.175 FM
RS-15 02 Sep 09:36:27 09:46:58 48° 314° (NW) 09:57:28 29.354 - 29.394 USB, Beacon 29.352 USB
ISS 02 Sep 09:47:19 09:50:28 41° 137° (SE) 09:53:38 145.800 FM
UKube-1 02 Sep 09:58:11 10:01:28 21° 95° (E) 10:04:43 145.840 MHz, 145.915 MHz
Oscar 11 02 Sep 10:01:59 10:04:34 15° 92° (E) 10:07:08 145.825 FM, Beacon 2401.500 USB
HO-68 02 Sep 10:02:56 10:09:54 51° 101° (E) 10:16:49 435.675 MHz FM
FUNcube-1 02 Sep 10:35:07 10:37:44 15° 91° (E) 10:40:20 145.950 - 145.970 MHz USB
KITSAT 1 02 Sep 11:14:04 11:17:00 12° 262° (W) 11:19:56 435.175 FM
ISS 02 Sep 11:24:24 11:27:17 27° 334° (NNW) 11:30:11 145.800 FM
PANSAT 02 Sep 11:31:42 11:33:07 12° 170° (S) 11:34:31 not established
UKube-1 02 Sep 11:33:48 11:37:43 34° 290° (WNW) 11:41:37 145.840 MHz, 145.915 MHz
Oscar 11 02 Sep 11:36:48 11:40:59 46° 287° (WNW) 11:45:08 145.825 FM, Beacon 2401.500 USB
HO-68 02 Sep 11:51:11 11:57:16 31° 298° (WNW) 12:03:21 435.675 MHz FM
SO-50 02 Sep 11:54:51 11:59:22 40° 51° (NE) 12:03:55 436.795 FM
RS-15 02 Sep 11:55:26 12:03:01 20° 346° (NNW) 12:10:40 29.354 - 29.394 USB, Beacon 29.352 USB
FUNcube-1 02 Sep 12:09:57 12:14:23 52° 287° (WNW) 12:18:51 145.950 - 145.970 MHz USB
JAS-1B 02 Sep 12:29:00 12:33:04 14° 52° (NE) 12:36:55 435.800 - 435.900 CW/SSB
Oscar 16 02 Sep 12:53:24 12:57:09 21° 64° (ENE) 13:00:55 437.025 USB, Beacon 2401.1428
MaSat-1 02 Sep 12:54:59 12:59:45 54° 110° (ESE) 13:04:46 437.345 MHz
ISS 02 Sep 13:03:26 13:04:54 12° 354° (N) 13:06:21 145.800 FM
Uribyol 2 02 Sep 13:07:55 13:10:04 13° 59° (ENE) 13:12:14 436.500 FM
PANSAT 02 Sep 13:10:28 13:12:33 14° 183° (S) 13:14:38 not established
AO-27 02 Sep 13:26:57 13:30:27 19° 63° (ENE) 13:33:57 436.795 MHz FM
SO-50 02 Sep 13:35:48 13:39:45 26° 248° (WSW) 13:43:43 436.795 FM
UOSAT-12 02 Sep 13:38:56 13:43:17 35° 50° (NE) 13:47:35 437.025 FM, 437.400 FM
Oscar 19 02 Sep 13:55:29 14:00:38 74° 74° (ENE) 14:05:49 437.125 CW, 437.150 USB
AO-Echo 02 Sep 14:00:42 14:05:19 39° 70° (ENE) 14:09:48 ?
Gurwin Techsat 1B 02 Sep 14:10:47 14:14:43 22° 64° (ENE) 14:18:39 435.225 FM
RS-15 02 Sep 14:12:37 14:20:59 24° 23° (NNE) 14:29:28 29.354 - 29.394 USB, Beacon 29.352 USB
JAS-1B 02 Sep 14:12:39 14:22:07 60° 70° (ENE) 14:30:30 435.800 - 435.900 CW/SSB
Oscar 16 02 Sep 14:31:08 14:36:07 49° 260° (W) 14:41:09 437.025 USB, Beacon 2401.1428
MaSat-1 02 Sep 14:33:14 14:37:06 22° 308° (NW) 14:41:04 437.345 MHz
ITAMSAT 1 02 Sep 14:34:28 14:39:37 76° 74° (ENE) 14:44:47 435.822 SSB
ISS 02 Sep 14:40:37 14:42:43 15° 15° (NNE) 14:44:49 145.800 FM
AO-7 02 Sep 14:42:45 14:47:51 18° 50° (NE) 14:52:57 29.400 - 29.500 MHz
Uribyol 2 02 Sep 14:43:40 14:48:49 84° 256° (WSW) 14:54:01 436.500 FM
TMSAT-1 02 Sep 14:59:09 15:04:05 42° 70° (ENE) 15:09:04 436.925 FM
AO-27 02 Sep 15:04:27 15:09:31 56° 259° (W) 15:14:36 436.795 MHz FM
UOSAT-12 02 Sep 15:19:19 15:23:18 28° 247° (WSW) 15:27:14 437.025 FM, 437.400 FM
PCSat 02 Sep 15:37:00 15:40:13 16° 104° (ESE) 15:43:27 145.825 MHz
Oscar 19 02 Sep 15:38:20 15:40:30 13° 270° (W) 15:42:41 437.125 CW, 437.150 USB
AO-Echo 02 Sep 15:40:16 15:44:10 23° 265° (W) 15:48:00 ?
Gurwin Techsat 1B 02 Sep 15:49:12 15:54:19 49° 261° (W) 15:59:28 435.225 FM
JAS-1B 02 Sep 16:04:10 16:12:44 35° 265° (W) 16:20:37 435.800 - 435.900 CW/SSB
ISS 02 Sep 16:16:43 16:20:01 56° 34° (NE) 16:23:18 145.800 FM
ITAMSAT 1 02 Sep 16:17:41 16:19:39 12° 270° (W) 16:21:38 435.822 SSB
RS-15 02 Sep 16:25:11 16:36:10 62° 52° (NE) 16:47:33 29.354 - 29.394 USB, Beacon 29.352 USB
AO-7 02 Sep 16:31:01 16:39:20 78° 70° (ENE) 16:47:40 29.400 - 29.500 MHz
Uosat F 02 Sep 16:31:53 16:36:49 62° 73° (ENE) 16:41:45 435.120 FM
TMSAT-1 02 Sep 16:40:00 16:44:09 23° 266° (W) 16:48:20 436.925 FM
JAS-2 02 Sep 16:45:26 16:46:36 11° 59° (ENE) 16:47:46 435.800 - 435.900 CW/SSB, 435.910 FM
Sapphire 02 Sep 16:48:32 16:53:52 66° 115° (ESE) 16:59:14 437.095 MHz 1200 baud AX-25 AFSK
Hamsat 02 Sep 17:17:35 17:20:07 15° 65° (ENE) 17:22:39 145.90 MHz
PCSat 02 Sep 17:17:39 17:23:02 67° 301° (WNW) 17:28:27 145.825 MHz
ISS 02 Sep 17:54:21 17:56:26 16° 230° (SW) 17:58:30 145.800 FM
OPAL 02 Sep 18:04:52 18:10:08 90° 107° (ESE) 18:15:20 ?
Uosat F 02 Sep 18:13:17 18:16:00 15° 269° (W) 18:18:43 435.120 FM
JAS-2 02 Sep 18:24:56 18:31:00 81° 75° (ENE) 18:36:27 435.800 - 435.900 CW/SSB, 435.910 FM
AO-7 02 Sep 18:26:51 18:32:52 22° 267° (W) 18:38:55 29.400 - 29.500 MHz
Sapphire 02 Sep 18:33:48 18:37:46 20° 314° (NW) 18:41:46 437.095 MHz 1200 baud AX-25 AFSK
RS-15 02 Sep 18:38:09 18:48:00 39° 253° (WSW) 18:58:15 29.354 - 29.394 USB, Beacon 29.352 USB
Hamsat 02 Sep 18:51:28 18:55:39 49° 261° (W) 18:59:53 145.90 MHz
